[[{"header":{"parameterUnit":"m.s-1","parameterCategory":1,"la1":30.2991,"la2":30.254,"lo1":-89.0895,"lo2":-89.0444,"dy":0.0017,"dx":0.0017,"nx":28,"ny":28,"refTime":"2024-02-03T09:00:00:Z","depth":0,"parameterNumber":2,"parameterNumberName":"U-component_of_WINDS"},"data":[0,0,0,0,0,0,0,0,0,0,0,0,0,0,0,0,0,0,0,0,0,0,0,0,0,0,0,0,0,0,0,0,0,0,0,0,0,0,0,0,0,0,0,0,0,0,0,0,0,0,0,0,0,0,0,0,0,0,-2.3892,-2.3893,0,-2.3949,-2.395,-2.3951,-2.3909,-2.3907,-2.3905,-2.3904,-2.3963,-2.3966,-2.3969,0,0,0,0,0,0,0,0,0,0,0,0,0,-2.3749,-2.3752,-2.3892,-2.3893,-2.3894,-2.3949,-2.395,-2.3951,-2.3909,-2.3907,-2.3905,-2.3903,-2.3962,-2.3966,-2.397,0,0,0,0,0,0,0,0,0,0,0,0,0,-2.3809,-2.3752,-2.3892,-2.388,-2.3879,-2.3949,-2.395,-2.3951,-2.391,-2.3907,-2.3904,-2.3902,-2.396,-2.3965,-2.397,-2.4055,0,0,-2.3985,-2.3987,0,0,0,0,0,0,0,0,-2.3806,-2.3814,-2.3881,-2.3881,-2.388,-2.3919,-2.3921,-2.3986,-2.3911,-2.3898,-2.3904,-2.3901,-2.3951,-2.3956,-2.3973,-2.4058,-2.4061,-2.3986,-2.3989,-2.3991,-2.3992,0,0,0,0,0,0,0,-2.3801,-2.3812,-2.3915,-2.3882,-2.3882,-2.3872,-2.3877,-2.3933,-2.3939,-2.3899,-2.3896,-2.3904,-2.395,-2.3968,-2.3974,-2.4061,-2.3985,-2.399,-2.3993,-2.3995,-2.4219,-2.4222,0,0,0,0,0,0,-2.3798,-2.3808,-2.3913,-2.3917,-2.3835,-2.3876,-2.3883,-2.391,-2.3938,-2.394,-2.3906,-2.3901,-2.3961,-2.3968,-2.3976,-2.4077,-2.3991,-2.3995,-2.3998,-2.4216,-2.422,-2.4223,0,0,0,0,0,0,-2.3795,-2.3808,-2.3911,-2.3862,-2.3874,-2.3882,-2.3912,-2.3912,-2.393,-2.3943,-2.3944,-2.3923,-2.3959,-2.3969,-2.4036,-2.4079,-2.3997,-2.4002,-2.4212,-2.4217,-2.4221,-2.428,0,0,0,0,0,0,-2.3791,-2.3807,-2.384,-2.3863,-2.3877,-2.397,-2.3915,-2.3915,-2.3939,-2.3934,-2.396,-2.3962,-2.3958,-2.4029,-2.4041,-2.4084,-2.4006,-2.4209,-2.4214,-2.422,-2.4275,-2.4286,-2.4297,0,0,0,0,0,-2.3786,-2.3854,-2.3841,-2.3854,-2.3917,-2.3972,-2.398,-2.3974,-2.3943,-2.3975,-2.3983,-2.3961,-2.4072,-2.4036,-2.4049,-2.4094,-2.4206,-2.4213,-2.4219,-2.427,-2.4284,-2.4296,0,0,0,0,0,0,-2.3836,-2.3857,-2.3843,-2.3921,-2.3945,-2.3965,-2.4006,-2.3989,-2.4023,-2.4017,-2.4008,-2.4015,-2.4084,-2.4096,-2.4055,-2.4178,-2.4134,-2.4144,-2.4168,-2.4182,-2.4192,-2.4188,-2.401,0,0,0,0,0,-2.3856,-2.3899,-2.3915,-2.3982,-2.3995,-2.3998,-2.4022,-2.4015,-2.404,-2.405,-2.4063,-2.4089,-2.4129,-2.4156,-2.4194,-2.4276,-2.4281,-2.4314,-2.4325,-2.4334,-2.4342,-2.4386,-2.4401,-2.4245,-2.4245,-2.4245,0,0,-2.3898,-2.3915,-2.3942,-2.3992,-2.401,-2.4055,-2.4007,-2.4056,-2.4089,-2.4058,-2.4121,-2.4132,-2.416,-2.4234,-2.4268,-2.4246,-2.4386,-2.4342,-2.4349,-2.4353,-2.4394,-2.4409,-2.4422,-2.425,-2.4249,-2.4248,0,0,-2.3997,-2.4014,-2.4071,-2.409,-2.4118,-2.412,-2.4134,-2.4157,-2.4162,-2.4226,-2.4203,-2.4242,-2.4312,-2.4333,-2.4352,-2.4458,-2.4439,-2.4471,-2.4528,-2.4571,-2.4583,-2.4594,-2.4631,-2.4645,-2.448,-2.448,-2.448,0,-2.4045,-2.4111,-2.4103,-2.4153,-2.4176,-2.4149,-2.4207,-2.4226,-2.4265,-2.4281,-2.4256,-2.4343,-2.436,-2.4439,-2.4464,-2.4481,-2.4497,-2.4468,-2.4582,-2.4593,-2.4603,-2.4638,-2.4652,-2.4483,-2.4483,-2.4483,-2.4482,0,-2.4169,-2.4215,-2.4258,-2.4296,-2.4323,-2.4377,-2.4377,-2.4406,-2.4397,-2.4401,-2.4466,-2.4485,-2.4526,-2.4545,-2.4536,-2.4623,-2.4608,-2.4583,-2.4538,-2.4621,-2.4654,-2.4668,-2.4489,-2.4487,-2.4486,-2.4485,0,0,-2.4301,-2.4333,-2.4349,-2.4366,-2.4394,-2.443,-2.4482,-2.4522,-2.4547,-2.4575,-2.4619,-2.4678,-2.4655,-2.4677,-2.4671,-2.4709,-2.4791,-2.4678,-2.4679,-2.4698,-2.4886,-2.4905,-2.4921,-2.4778,-2.4781,-2.4783,-2.4884,0,-2.4401,-2.4492,-2.4486,-2.4572,-2.4614,-2.459,-2.4635,-2.4658,-2.4664,-2.4701,-2.4707,-2.4749,-2.4715,-2.4729,-2.4765,-2.4773,-2.4828,-2.4766,-2.4819,-2.4821,-2.4812,-2.4938,-2.4958,-2.5052,-2.4897,-2.4899,-2.4901,0,-2.4529,-2.4561,-2.4651,-2.4673,-2.469,-2.4732,-2.4768,-2.4803,-2.4828,-2.483,-2.4854,-2.4842,-2.4895,-2.4849,-2.4922,-2.488,-2.4901,-2.4909,-2.4912,-2.4916,-2.4865,-2.4945,-2.5082,-2.5096,-2.4921,-2.4919,-2.4918,0,-2.4616,-2.4681,-2.4743,-2.4758,-2.4785,-2.4815,-2.4828,-2.485,-2.4874,-2.4906,-2.4921,-2.4959,-2.4979,-2.5009,-2.5006,-2.4973,-2.508,-2.5035,-2.5083,-2.5083,-2.5106,-2.5105,-2.5248,-2.5121,-2.5121,-2.5121,-2.512,0,-2.4727,-2.4783,-2.4782,-2.4821,-2.4883,-2.4875,-2.4937,-2.4946,-2.4966,-2.5006,-2.4987,-2.5025,-2.502,-2.5058,-2.5056,-2.5117,-2.5126,-2.5129,-2.5128,-2.513,-2.513,-2.5144,-2.5137,-2.5124,-2.5123,-2.5123,-2.5122,0,-2.4834,-2.4836,-2.4902,-2.4922,-2.4928,-2.4973,-2.499,-2.5027,-2.5031,-2.5081,-2.5092,-2.5099,-2.5143,-2.5143,-2.5193,-2.5192,-2.5266,-2.5258,-2.5257,-2.5256,-2.5303,-2.5299,-2.546,-2.5481,-2.5341,-2.5343,-2.5344,0,-2.4905,-2.4948,-2.4972,-2.4997,-2.5011,-2.5052,-2.5077,-2.5071,-2.5097,-2.5129,-2.5161,-2.5203,-2.5236,-2.5307,-2.5316,-2.5354,-2.5346,-2.54,-2.5352,-2.5353,-2.5346,-2.5343,-2.5347,-2.5409,-2.5411,-2.5412,-2.5413,0,-2.5031,-2.5029,-2.5065,-2.5101,-2.5131,-2.5159,-2.5185,-2.5207,-2.5204,-2.5234,-2.5278,-2.5304,-2.5355,-2.5396,-2.5433,-2.5446,-2.5429,-2.5428,-2.5441,-2.5444,-2.5442,-2.5443,-2.5282,-2.5425,-2.5423,-2.5423,-2.5422,-2.5421,-2.5121,-2.5158,-2.518,-2.5221,-2.524,-2.5264,-2.5299,-2.5307,-2.5344,-2.5384,-2.5379,-2.5428,-2.5452,-2.5499,-2.5515,-2.5554,-2.5535,-2.5554,-2.5559,-2.5563,-2.5568,-2.5436,-2.556,-2.556,-2.556,-2.556,-2.5559,0,-2.5245,-2.5259,-2.5296,-2.5333,-2.5364,-2.5345,-2.5373,-2.5401,-2.5444,-2.5468,-2.55,-2.5551,-2.5591,-2.5603,-2.5642,-2.567,-2.5663,-2.568,-2.5678,-2.5681,-2.5583,-2.5568,-2.5685,-2.5685,-2.5685,-2.5685,-2.5685,-2.5685,-2.5313,-2.5374,-2.5375,-2.5444,-2.5457,-2.5505,-2.5522,-2.5545,-2.5563,-2.562,-2.5653,-2.5661,-2.568,-2.5719,-2.5755,-2.5758,-2.5773,-2.5793,-2.5792,-2.5701,-2.5688,-2.5676,-2.5661,-2.5796,-2.5797,-2.5887,-2.5888,-2.5888]},{"header":{"parameterUnit":"m.s-1","parameterCategory":1,"la1":30.2991,"la2":30.254,"lo1":-89.0895,"lo2":-89.0444,"dy":0.0017,"dx":0.0017,"nx":28,"ny":28,"refTime":"2024-02-03T09:00:00:Z","depth":0,"parameterNumber":3,"parameterNumberName":"V-component_of_WINDS"},"data":[0,0,0,0,0,0,0,0,0,0,0,0,0,0,0,0,0,0,0,0,0,0,0,0,0,0,0,0,0,0,0,0,0,0,0,0,0,0,0,0,0,0,0,0,0,0,0,0,0,0,0,0,0,0,0,0,0,0,-0.7538,-0.7538,0,-0.7499,-0.7499,-0.7498,-0.7482,-0.7482,-0.7483,-0.7483,-0.7439,-0.7438,-0.7437,0,0,0,0,0,0,0,0,0,0,0,0,0,-0.7595,-0.7594,-0.7538,-0.7538,-0.7537,-0.7499,-0.7499,-0.7498,-0.7482,-0.7482,-0.7483,-0.7483,-0.7439,-0.7438,-0.7436,0,0,0,0,0,0,0,0,0,0,0,0,0,-0.7564,-0.7594,-0.7538,-0.7525,-0.7523,-0.7499,-0.7499,-0.7498,-0.7482,-0.7482,-0.7483,-0.7483,-0.744,-0.7438,-0.7436,-0.7422,0,0,-0.7431,-0.743,0,0,0,0,0,0,0,0,-0.7566,-0.7562,-0.7527,-0.7526,-0.7524,-0.7496,-0.7503,-0.7472,-0.7482,-0.7498,-0.7483,-0.7483,-0.7458,-0.7454,-0.7447,-0.742,-0.7418,-0.743,-0.7429,-0.7428,-0.7428,0,0,0,0,0,0,0,-0.7568,-0.7564,-0.7523,-0.7527,-0.7525,-0.7519,-0.7515,-0.7497,-0.7477,-0.7496,-0.7495,-0.7491,-0.7457,-0.7448,-0.7445,-0.7417,-0.743,-0.7429,-0.7428,-0.7427,-0.7376,-0.7375,0,0,0,0,0,0,-0.7573,-0.7566,-0.7524,-0.7522,-0.7546,-0.7518,-0.7514,-0.7505,-0.7477,-0.7473,-0.7491,-0.749,-0.7451,-0.7448,-0.7444,-0.7425,-0.7428,-0.7427,-0.7426,-0.7376,-0.7375,-0.7375,0,0,0,0,0,0,-0.7574,-0.757,-0.7525,-0.7543,-0.7537,-0.7517,-0.7507,-0.7504,-0.7496,-0.7473,-0.7469,-0.7486,-0.7451,-0.7446,-0.7427,-0.7423,-0.7426,-0.7424,-0.7376,-0.7376,-0.7375,-0.7386,0,0,0,0,0,0,-0.7576,-0.757,-0.7566,-0.7543,-0.7536,-0.7511,-0.7507,-0.7503,-0.7493,-0.7492,-0.7468,-0.7464,-0.7451,-0.743,-0.7426,-0.742,-0.7423,-0.7376,-0.7376,-0.7375,-0.7386,-0.7386,-0.7387,0,0,0,0,0,-0.7578,-0.757,-0.7565,-0.756,-0.753,-0.7511,-0.7507,-0.7493,-0.7493,-0.7487,-0.7472,-0.7465,-0.7424,-0.7429,-0.7423,-0.7417,-0.7377,-0.7376,-0.7375,-0.7386,-0.7386,-0.7387,0,0,0,0,0,0,-0.7591,-0.7566,-0.7562,-0.7546,-0.7531,-0.7508,-0.7501,-0.7494,-0.7478,-0.7477,-0.746,-0.7455,-0.7437,-0.7425,-0.743,-0.7401,-0.74,-0.7398,-0.741,-0.741,-0.741,-0.7413,-0.7421,0,0,0,0,0,-0.7592,-0.7579,-0.7558,-0.7546,-0.7539,-0.7521,-0.7512,-0.7503,-0.7486,-0.748,-0.7464,-0.7446,-0.743,-0.7419,-0.7402,-0.7384,-0.7378,-0.7378,-0.7378,-0.7378,-0.7376,-0.7365,-0.7364,-0.7373,-0.7373,-0.7373,0,0,-0.7594,-0.7579,-0.7572,-0.7548,-0.7536,-0.7522,-0.7516,-0.7502,-0.7491,-0.7477,-0.7458,-0.7446,-0.7425,-0.7407,-0.7398,-0.7396,-0.7373,-0.7377,-0.7378,-0.7376,-0.7364,-0.7364,-0.7363,-0.7373,-0.7373,-0.7373,0,0,-0.759,-0.7578,-0.7566,-0.7554,-0.7535,-0.7523,-0.752,-0.7499,-0.749,-0.7471,-0.7461,-0.7446,-0.7418,-0.7404,-0.7393,-0.7383,-0.7375,-0.7378,-0.7378,-0.7367,-0.7367,-0.7366,-0.7361,-0.736,-0.7377,-0.7377,-0.7377,0,-0.7594,-0.7574,-0.7561,-0.7547,-0.7537,-0.7524,-0.7512,-0.75,-0.7476,-0.7468,-0.7467,-0.7431,-0.7416,-0.7394,-0.7391,-0.7383,-0.7378,-0.738,-0.7368,-0.7367,-0.7366,-0.7362,-0.736,-0.7377,-0.7377,-0.7377,-0.7377,0,-0.758,-0.7566,-0.7559,-0.7537,-0.7526,-0.7512,-0.7496,-0.7486,-0.7477,-0.7465,-0.7445,-0.7427,-0.7407,-0.74,-0.7392,-0.7376,-0.7376,-0.7372,-0.737,-0.7366,-0.7362,-0.736,-0.7378,-0.7378,-0.7377,-0.7377,0,0,-0.7583,-0.7554,-0.7552,-0.7541,-0.7519,-0.7508,-0.7493,-0.7474,-0.7465,-0.7449,-0.7435,-0.7411,-0.7407,-0.7395,-0.7384,-0.7375,-0.7367,-0.7371,-0.737,-0.7371,-0.7347,-0.735,-0.7349,-0.7361,-0.7361,-0.7361,-0.7349,0,-0.7576,-0.7551,-0.7539,-0.7519,-0.7505,-0.7493,-0.748,-0.7464,-0.7452,-0.7438,-0.7424,-0.7407,-0.7403,-0.7395,-0.7385,-0.737,-0.7362,-0.7371,-0.7347,-0.7347,-0.7353,-0.7347,-0.735,-0.734,-0.7347,-0.7347,-0.7347,0,-0.7565,-0.7549,-0.7529,-0.7507,-0.7501,-0.749,-0.7471,-0.7458,-0.7439,-0.7431,-0.7417,-0.7406,-0.7389,-0.7388,-0.7363,-0.737,-0.7359,-0.735,-0.7349,-0.7346,-0.7346,-0.7343,-0.7336,-0.7335,-0.7344,-0.7344,-0.7344,0,-0.7569,-0.7543,-0.7527,-0.7518,-0.7493,-0.7486,-0.7475,-0.7456,-0.7445,-0.7428,-0.742,-0.7401,-0.739,-0.7374,-0.7358,-0.7359,-0.7334,-0.7333,-0.7326,-0.7326,-0.7321,-0.7322,-0.7312,-0.7315,-0.7315,-0.7315,-0.7315,0,-0.7562,-0.7549,-0.7528,-0.7518,-0.7503,-0.7488,-0.7473,-0.7461,-0.7445,-0.7431,-0.7419,-0.7406,-0.7385,-0.737,-0.7357,-0.7337,-0.7333,-0.7325,-0.7321,-0.7326,-0.7327,-0.7318,-0.7318,-0.7315,-0.7315,-0.7315,-0.7315,0,-0.7564,-0.7549,-0.7531,-0.7509,-0.7503,-0.7493,-0.7473,-0.7462,-0.745,-0.7432,-0.7427,-0.7407,-0.7387,-0.737,-0.7344,-0.7335,-0.7315,-0.7311,-0.7322,-0.732,-0.7314,-0.7315,-0.7299,-0.7296,-0.7301,-0.7301,-0.7301,0,-0.7561,-0.7551,-0.7528,-0.7518,-0.7508,-0.7493,-0.7482,-0.7466,-0.7454,-0.7432,-0.7423,-0.7403,-0.7386,-0.7355,-0.7337,-0.7317,-0.7312,-0.7308,-0.7309,-0.7313,-0.7311,-0.7312,-0.731,-0.7308,-0.7308,-0.7308,-0.7308,0,-0.7556,-0.7549,-0.7534,-0.7517,-0.7504,-0.7489,-0.7473,-0.7466,-0.7446,-0.7434,-0.7415,-0.7402,-0.7375,-0.7355,-0.7332,-0.7319,-0.731,-0.7308,-0.7305,-0.7309,-0.7316,-0.7311,-0.7322,-0.7308,-0.7308,-0.7308,-0.7308,-0.7308,-0.7555,-0.7545,-0.7528,-0.7511,-0.7498,-0.7483,-0.7472,-0.7458,-0.7442,-0.742,-0.7411,-0.7391,-0.7371,-0.734,-0.7327,-0.731,-0.7308,-0.7304,-0.7303,-0.7302,-0.7303,-0.7319,-0.7306,-0.7306,-0.7306,-0.7306,-0.7306,0,-0.7549,-0.7537,-0.7522,-0.7501,-0.7488,-0.7481,-0.7463,-0.7452,-0.7435,-0.7418,-0.7402,-0.7379,-0.7359,-0.7339,-0.7318,-0.7308,-0.7303,-0.7302,-0.7303,-0.73,-0.7306,-0.7311,-0.7307,-0.7307,-0.7307,-0.7307,-0.7307,-0.7307,-0.7545,-0.7528,-0.7519,-0.7495,-0.7483,-0.7464,-0.7454,-0.744,-0.7426,-0.7402,-0.7386,-0.7373,-0.7354,-0.7331,-0.7312,-0.7306,-0.7299,-0.73,-0.7293,-0.7299,-0.7299,-0.7299,-0.7303,-0.7298,-0.7298,-0.7288,-0.7288,-0.7288]}]]